Showing default

GONETS D1 8, 27059

Orbit data source: Space-Track

GONETS D1 8, 27059 is a payload satellite owned by Gonets (CIS) in LEO that was launched on Fri, 28 Dec 2001 UTC via a TSIKLON-3 launch vehicle from the Plesetsk Missile And Space Complex (PKMTR). Payload-class satellites include a variety of spacecraft equipped with specific instruments for various scientific and technological missions. These include communications satellites like Starlink; space stations such as the ISS; scientific satellites like the Hubble; Earth observation satellites from companies like Planet Labs, Umbra, and HawkEye 360; GPS; miniature CubeSats for education and research; and military/defense satellites.

Loading next visibility...
Identifier
27059, 2001-058E
Orbit
LEO
Country
Flag of CISCIS
Related business
Manufacturer
NPO PM
Mission
Non-operational Civil Communications
Bus & Motor
STRELA-3, Unknown motor
Mass
225 kg wet, 225 kg dry
Launch date (UTC)
2001-12-28 (24 years ago)
Launch vehicle
TSIKLON-3
Launch site
Plesetsk Missile And Space Complex (PKMTR)
Object type
Payload
Rocket body
Debris
Shape & HBR
Cyl + 1 Ant, 3.5 m
Radar Cross Section
1.798 m², Medium (>0.1 m² and < 1m²)

Expand to show TLE details & history
Last TLE update: 7 hours ago

TLE from 7 hours ago
0 GONETS D1 8
1 27059U 01058E   25308.59151836  .00000032  00000-0  12091-3 0  9994
2 27059  82.5442 356.5869 0002848  61.4353 298.7024 12.61550050 98257
Epoch: 2025-11-04T14:11Z
TLE epoch observation values (Epoch: 2025-11-04T14:11:47.186Z)
Latitude
-0.00001°
Longitude
99.56395°
Altitude
1,418.215 km
Speed
7.152 km/s
True Right ascension
23h 46m 20s
True Declination
0° 00' 00"
Sunlit
Object was in full shadow at epoch
Visualization orbit readout
Latitude
Unknown
Longitude
Unknown
Altitude
Unknown
Speed
Unknown
Apparent Right ascension
Unknown
Apparent Declination
Unknown
Sunlit
N/A
Visualization observer readout
Local Sidereal Time
17:16:02
Azimuth
Unknown
Elevation
Unknown
Doppler factor
Unknown
Orbital elements
Apogee altitude
1,416.095 km
Perigee altitude
1,411.657 km
Semi-major axis
7,792.013 km
Eccentricity
0.00028
Inclination
82.5442°
RAAN
356.5869°
Arg. of periapsis
61.4353°
True anomaly
298.67377°
Mean anomaly
298.7024°
Eccentric anomaly
298.68809°
Mean motion
3.1555 °/min
Orbital period
114.09 mins
BSTAR
0.00012091
Loading maneuver chart data...
Computing Atmospheric mass density...
Loading historical data...
Loading historical data...
Loading historical data...
Loading historical data...
Loading historical data...
Loading historical data...
Loading historical data...

Documentation

Showing up to 5 results
|